FW1924 Weather Reports


time (UTC)temp
C
wind
direction
speed
KPH
gust
KPH
rain 1hr
cm
rain 24hr
cm
rain mn
cm
humidity
%
barometer
mb
20260509004517 25 341 4.8 12.9 0.00 0.00 0.00 20 1005.6
20260509003007 25 329 6.4 12.9 0.00 0.00 0.00 22 1005.6
20260509001606 25 331 8.0 19.3 0.00 0.00 0.00 21 1005.6
20260509000015 24 313 9.7 19.3 0.00 0.00 0.00 22 1005.8
20260508234514 25 334 11.3 20.9 0.00 0.00 0.00 22 1005.9
20260508233012 25 360 6.4 17.7 0.00 0.00 0.00 22 1005.8
20260508231503 25 360 11.3 20.9 0.00 0.00 0.00 23 1006.0
20260508230100 25 350 11.3 22.5 0.00 0.00 0.00 22 1006.0
20260508224547 24 321 12.9 27.4 0.00 0.00 0.00 24 1006.1
20260508223044 25 355 16.1 25.7 0.00 0.00 0.00 22 1006.5
20260508221537 25 351 14.5 25.7 0.00 0.00 0.00 22 1006.7
20260508220023 25 336 11.3 20.9 0.00 0.00 0.00 24 1006.9
20260508214515 24 325 17.7 32.2 0.00 0.00 0.00 22 1006.9
20260508213004 24 343 19.3 35.4 0.00 0.00 0.00 23 1007.1
20260508211557 23 9 14.5 30.6 0.00 0.00 0.00 25 1007.5
20260508210057 24 360 19.3 30.6 0.00 0.00 0.00 23 1007.5
20260508204542 24 351 17.7 27.4 0.00 0.00 0.00 24 1007.7
20260508203035 24 333 17.7 29.0 0.00 0.00 0.00 27 1007.9
20260508201525 23 333 16.1 32.2 0.00 0.00 0.00 25 1007.9
20260508200017 23 5 19.3 30.6 0.00 0.00 0.00 25 1008.0
20260508194516 23 350 19.3 33.8 0.00 0.00 0.00 26 1008.0
20260508191506 23 344 17.7 27.4 0.00 0.00 0.00 27 1008.4
20260508190005 23 333 19.3 29.0 0.00 0.00 0.00 27 1008.5
20260508184620 22 331 17.7 33.8 0.00 0.00 0.00 27 1008.7
20260508183044 22 330 17.7 29.0 0.00 0.00 0.00 29 1008.8
20260508181549 22 344 16.1 29.0 0.00 0.00 0.00 28 1009.0
20260508180033 22 327 19.3 33.8 0.00 0.00 0.00 26 1008.9
20260508174529 22 338 16.1 33.8 0.00 0.00 0.00 29 1009.0
20260508173025 21 326 14.5 32.2 0.00 0.00 0.00 28 1008.9
20260508171513 21 296 17.7 29.0 0.00 0.00 0.00 30 1008.8
20260508170002 21 340 12.9 25.7 0.00 0.00 0.00 36 1009.0
20260508164600 20 355 9.7 19.3 0.00 0.00 0.00 36 1009.0
20260508163047 19 26 4.8 12.9 0.00 0.00 0.00 42 1009.1
20260508161549 18 26 6.4 12.9 0.00 0.00 0.00 40 1009.0
20260508160032 18 348 11.3 16.1 0.00 0.00 0.00 44 1009.0
20260508154510 17 11 6.4 14.5 0.00 0.00 0.00 44 1008.9
20260508153004 16 45 1.6 9.7 0.00 0.00 0.00 45 1009.0
20260508151521 16 42 4.8 6.4 0.00 0.00 0.00 49 1008.8
20260508150011 15 338 0.0 6.4 0.00 0.00 0.00 48 1008.7
20260508144620 13 317 1.6 4.8 0.00 0.00 0.00 51 1008.7
20260508143045 13 287 1.6 4.8 0.00 0.00 0.00 54 1008.7
20260508141547 12 273 1.6 3.2 0.00 0.00 0.00 56 1008.7
20260508140008 11 273 0.0 3.2 0.00 0.00 0.00 62 1008.6
20260508134600 10 273 0.0 3.2 0.00 0.00 0.00 64 1008.6
20260508133110 9 273 0.0 0.0 0.00 0.00 0.00 63 1008.4
20260508131536 8 273 0.0 0.0 0.00 0.00 0.00 61 1008.2
20260508130027 8 273 0.0 4.8 0.00 0.00 0.00 60 1008.2
20260508124539 8 273 0.0 3.2 0.00 0.00 0.00 59 1008.0
20260508123029 8 273 0.0 4.8 0.00 0.00 0.00 58 1007.8
20260508121520 9 273 1.6 4.8 0.00 0.00 0.00 57 1007.7
20260508120017 10 273 3.2 4.8 0.00 0.00 0.00 56 1007.7
20260508114508 10 273 3.2 6.4 0.00 0.00 0.00 54 1007.6
20260508113109 10 273 3.2 9.7 0.00 0.00 0.00 53 1007.6
20260508111607 10 300 4.8 8.0 0.00 0.00 0.00 53 1007.5
20260508110055 10 312 4.8 9.7 0.00 0.00 0.00 52 1007.4
20260508104539 10 263 6.4 9.7 0.00 0.00 0.00 51 1007.3
20260508103029 11 261 3.2 6.4 0.00 0.00 0.00 49 1007.1
20260508101511 11 261 3.2 6.4 0.00 0.00 0.00 49 1007.1
20260508100003 11 261 8.0 11.3 0.00 0.00 0.00 49 1007.2
20260508094602 11 259 8.0 11.3 0.00 0.00 0.00 48 1007.1
20260508093058 11 261 4.8 11.3 0.00 0.00 0.00 47 1006.9
20260508091609 12 263 6.4 11.3 0.00 0.00 0.00 47 1007.0
20260508090110 12 262 8.0 11.3 0.00 0.00 0.00 47 1006.9
20260508084548 12 274 6.4 11.3 0.00 0.00 0.00 46 1007.1
20260508083047 12 268 4.8 11.3 0.00 0.00 0.00 46 1007.2
20260508081539 12 263 8.0 12.9 0.00 0.00 0.00 46 1007.2
20260508080042 12 258 9.7 14.5 0.00 0.00 0.00 45 1007.1
20260508074539 12 247 8.0 12.9 0.00 0.00 0.00 46 1007.1
20260508073018 12 247 6.4 11.3 0.00 0.00 0.00 46 1007.1
20260508071510 12 248 6.4 12.9 0.00 0.00 0.00 45 1007.1
20260508070059 13 252 4.8 8.0 0.00 0.00 0.00 45 1007.1
20260508064556 13 254 4.8 8.0 0.00 0.00 0.00 43 1007.2
20260508063056 13 252 4.8 11.3 0.00 0.00 0.00 43 1007.1
20260508061550 13 263 6.4 14.5 0.00 0.00 0.00 43 1007.2
20260508060036 13 327 3.2 12.9 0.00 0.00 0.00 42 1007.2
20260508054527 13 237 4.8 11.3 0.00 0.00 0.00 42 1007.2
20260508053122 13 232 3.2 6.4 0.00 0.00 0.00 42 1007.0
20260508051510 14 232 4.8 9.7 0.00 0.00 0.00 41 1006.9
20260508050004 14 232 3.2 8.0 0.00 0.00 0.00 41 1007.0
20260508044558 14 232 4.8 9.7 0.00 0.00 0.00 41 1006.9
20260508043103 14 227 4.8 9.7 0.00 0.00 0.00 43 1006.7
20260508041610 13 220 4.8 8.0 0.00 0.00 0.00 42 1006.8
20260508040043 13 236 3.2 8.0 0.00 0.00 0.00 43 1006.7
20260508034533 14 238 3.2 6.4 0.00 0.00 0.00 43 1006.7
20260508033026 15 238 1.6 6.4 0.00 0.00 0.00 44 1006.5
20260508031535 15 238 3.2 11.3 0.00 0.00 0.00 42 1006.3
20260508030035 16 262 4.8 9.7 0.00 0.00 0.00 41 1006.2
20260508024522 17 266 0.0 6.4 0.00 0.00 0.00 39 1006.1
20260508023022 18 336 1.6 3.2 0.00 0.00 0.00 35 1006.0
20260508021514 20 336 0.0 3.2 0.00 0.00 0.00 34 1006.0
20260508020020 21 336 3.2 8.0 0.00 0.00 0.00 30 1006.0
20260508014506 22 336 4.8 9.7 0.00 0.00 0.00 26 1005.9
20260508013059 22 336 0.0 6.4 0.00 0.00 0.00 26 1005.9
20260508011556 22 330 3.2 9.7 0.00 0.00 0.00 25 1006.0
20260508010049 22 25 3.2 8.0 0.00 0.00 0.00 28 1006.0